Location: Ithaca
(42.4410°N, 76.4970°W)
Time: 18:10:46
(UTC-04:00)

ISS - Visible Passes

Search period start: 21 September 2014 00:00
Search period end: 01 October 2014 00:00
Orbit: 413 x 417 km, 51.6° (Epoch: 21 September)

Date Brightness Start Highest point End Pass type
(mag) Time Alt. Az. Time Alt. Az. Time Alt. Az.
21 Sep -0.1 04:08:25 14° NE 04:08:25 14° NE 04:09:05 10° NE visible
21 Sep -0.9 05:41:17 10° NW 05:43:31 17° N 05:45:47 10° NE visible
22 Sep -1.0 04:54:22 18° N 04:54:24 18° N 04:56:46 10° NE visible
23 Sep 0.0 04:07:25 12° NNE 04:07:25 12° NNE 04:07:50 10° NE visible
23 Sep -0.9 05:40:29 10° NW 05:42:50 18° N 05:45:11 10° NE visible
24 Sep -0.9 04:53:20 16° N 04:53:38 17° N 04:55:53 10° NE visible
25 Sep 0.1 04:06:23 11° NE 04:06:23 11° NE 04:06:39 10° NE visible
25 Sep -1.2 05:39:15 10° NW 05:41:57 23° NNE 05:44:40 10° ENE visible
26 Sep -1.0 04:52:20 19° N 04:52:42 19° NNE 04:55:12 10° ENE visible
26 Sep -2.7 06:26:37 10° NW 06:29:55 59° NNE 06:33:12 10° ESE visible
27 Sep 0.2 04:05:27 11° NE 04:05:27 11° NE 04:05:43 10° NE visible
27 Sep -2.0 05:38:20 15° NW 05:40:46 38° NNE 05:43:54 10° E visible
28 Sep -1.5 04:51:32 28° NNE 04:51:32 28° NNE 04:54:27 10° E visible
28 Sep -3.1 06:25:08 10° WNW 06:28:23 54° SW 06:31:38 10° SE visible
29 Sep 0.3 04:04:50 10° ENE 04:04:50 10° ENE 04:04:53 10° ENE visible
29 Sep -3.3 05:37:43 29° NW 05:39:16 86° NNE 05:42:36 10° ESE visible
30 Sep -1.7 04:51:08 35° E 04:51:08 35° E 04:53:19 10° ESE visible
30 Sep -1.7 06:24:02 10° W 06:26:31 20° SW 06:29:03 10° S visible
